Time,TemperatureF,DewpointF,PressureIn,WindDirection,WindDirectionDegrees,WindSpeedMPH,WindSpeedGustMPH,Humidity,HourlyPrecipIn,Conditions,Clouds,dailyrainin,SoftwareType,DateUTC
2013-03-23 00:02:00,26.0,-99.9,-100.00,North,-999,-999.0,-999.0,-999,0.01,,,0.04,,2013-03-23 06:02:00,
2013-03-23 00:13:00,26.0,-99.9,-100.00,North,-999,-999.0,-999.0,-999,0.01,,,0.04,,2013-03-23 06:13:00,
2013-03-23 00:23:00,26.0,-99.9,-100.00,North,-999,-999.0,-999.0,-999,0.01,,,0.04,,2013-03-23 06:23:00,
2013-03-23 00:30:00,23.0,-99.9,-100.00,North,-999,-999.0,-999.0,-999,0.00,,,0.07,,2013-03-23 06:30:00,
2013-03-23 00:52:00,23.0,-99.9,-100.00,North,-999,-999.0,-999.0,-999,0.00,,,0.07,,2013-03-23 06:52:00,
2013-03-23 01:03:00,23.0,-99.9,-100.00,North,-999,-999.0,-999.0,-999,0.00,,,0.07,,2013-03-23 07:03:00,
2013-03-23 01:12:00,23.0,-99.9,-100.00,North,-999,-999.0,-999.0,-999,0.00,,,0.07,,2013-03-23 07:12:00,
2013-03-23 01:23:00,23.0,-99.9,-100.00,North,-999,-999.0,-999.0,-999,0.00,,,0.07,,2013-03-23 07:23:00,
2013-03-23 01:30:00,22.0,-99.9,-100.00,North,-999,-999.0,-999.0,-999,0.00,,,0.07,,2013-03-23 07:30:00,
2013-03-23 01:53:00,22.0,-99.9,-100.00,North,-999,-999.0,-999.0,-999,0.00,,,0.07,,2013-03-23 07:53:00,
2013-03-23 02:03:00,22.0,-99.9,-100.00,North,-999,-999.0,-999.0,-999,0.00,,,0.07,,2013-03-23 08:03:00,
2013-03-23 02:13:00,22.0,-99.9,-100.00,North,-999,-999.0,-999.0,-999,0.00,,,0.07,,2013-03-23 08:13:00,
2013-03-23 02:23:00,22.0,-99.9,-100.00,North,-999,-999.0,-999.0,-999,0.00,,,0.07,,2013-03-23 08:23:00,
2013-03-23 02:30:00,21.0,-99.9,-100.00,North,-999,-999.0,-999.0,-999,0.00,,,0.08,,2013-03-23 08:30:00,
2013-03-23 02:53:00,21.0,-99.9,-100.00,North,-999,-999.0,-999.0,-999,0.00,,,0.08,,2013-03-23 08:53:00,
2013-03-23 03:03:00,21.0,-99.9,-100.00,North,-999,-999.0,-999.0,-999,0.00,,,0.08,,2013-03-23 09:03:00,
2013-03-23 03:12:00,21.0,-99.9,-100.00,North,-999,-999.0,-999.0,-999,0.00,,,0.08,,2013-03-23 09:12:00,
2013-03-23 03:22:00,21.0,-99.9,-100.00,North,-999,-999.0,-999.0,-999,0.00,,,0.08,,2013-03-23 09:22:00,
2013-03-23 03:30:00,19.0,-99.9,-100.00,North,-999,-999.0,-999.0,-999,0.00,,,0.08,,2013-03-23 09:30:00,
2013-03-23 03:54:00,19.0,-99.9,-100.00,North,-999,-999.0,-999.0,-999,0.00,,,0.08,,2013-03-23 09:54:00,
2013-03-23 04:04:00,19.0,-99.9,-100.00,North,-999,-999.0,-999.0,-999,0.00,,,0.08,,2013-03-23 10:04:00,
2013-03-23 04:13:00,19.0,-99.9,-100.00,North,-999,-999.0,-999.0,-999,0.00,,,0.08,,2013-03-23 10:13:00,
2013-03-23 04:24:00,19.0,-99.9,-100.00,North,-999,-999.0,-999.0,-999,0.00,,,0.08,,2013-03-23 10:24:00,
2013-03-23 04:30:00,18.0,-99.9,-100.00,North,-999,-999.0,-999.0,-999,0.00,,,0.07,,2013-03-23 10:30:00,
2013-03-23 04:53:00,18.0,-99.9,-100.00,North,-999,-999.0,-999.0,-999,0.00,,,0.07,,2013-03-23 10:53:00,
2013-03-23 05:04:00,18.0,-99.9,-100.00,North,-999,-999.0,-999.0,-999,0.00,,,0.07,,2013-03-23 11:04:00,
2013-03-23 05:12:00,18.0,-99.9,-100.00,North,-999,-999.0,-999.0,-999,0.00,,,0.07,,2013-03-23 11:12:00,
2013-03-23 05:22:00,18.0,-99.9,-100.00,North,-999,-999.0,-999.0,-999,0.00,,,0.07,,2013-03-23 11:22:00,
2013-03-23 05:30:00,17.0,-99.9,-100.00,North,-999,-999.0,-999.0,-999,0.00,,,0.08,,2013-03-23 11:30:00,
2013-03-23 05:52:00,17.0,-99.9,-100.00,North,-999,-999.0,-999.0,-999,0.00,,,0.08,,2013-03-23 11:52:00,
2013-03-23 06:03:00,17.0,-99.9,-100.00,North,-999,-999.0,-999.0,-999,0.00,,,0.08,,2013-03-23 12:03:00,
2013-03-23 06:13:00,17.0,-99.9,-100.00,North,-999,-999.0,-999.0,-999,0.00,,,0.08,,2013-03-23 12:13:00,
2013-03-23 06:22:00,17.0,-99.9,-100.00,North,-999,-999.0,-999.0,-999,0.00,,,0.08,,2013-03-23 12:22:00,
2013-03-23 06:30:00,16.0,-99.9,-100.00,North,-999,-999.0,-999.0,-999,0.01,,,0.08,,2013-03-23 12:30:00,
2013-03-23 06:53:00,16.0,-99.9,-100.00,North,-999,-999.0,-999.0,-999,0.01,,,0.08,,2013-03-23 12:53:00,
2013-03-23 07:03:00,16.0,-99.9,-100.00,North,-999,-999.0,-999.0,-999,0.01,,,0.08,,2013-03-23 13:03:00,
2013-03-23 07:12:00,16.0,-99.9,-100.00,North,-999,-999.0,-999.0,-999,0.01,,,0.08,,2013-03-23 13:12:00,
2013-03-23 07:23:00,16.0,-99.9,-100.00,North,-999,-999.0,-999.0,-999,0.01,,,0.08,,2013-03-23 13:23:00,
2013-03-23 07:30:00,15.0,-99.9,-100.00,North,-999,-999.0,-999.0,-999,0.00,,,0.08,,2013-03-23 13:30:00,
2013-03-23 07:54:00,15.0,-99.9,-100.00,North,-999,-999.0,-999.0,-999,0.00,,,0.08,,2013-03-23 13:54:00,
2013-03-23 08:04:00,15.0,-99.9,-100.00,North,-999,-999.0,-999.0,-999,0.00,,,0.08,,2013-03-23 14:04:00,
2013-03-23 08:13:00,15.0,-99.9,-100.00,North,-999,-999.0,-999.0,-999,0.00,,,0.08,,2013-03-23 14:13:00,
2013-03-23 08:23:00,15.0,-99.9,-100.00,North,-999,-999.0,-999.0,-999,0.00,,,0.08,,2013-03-23 14:23:00,
2013-03-23 08:30:00,14.0,-99.9,-100.00,North,-999,-999.0,-999.0,-999,-99.99,,,0.07,,2013-03-23 14:30:00,
2013-03-23 08:53:00,14.0,-99.9,-100.00,North,-999,-999.0,-999.0,-999,-99.99,,,0.07,,2013-03-23 14:53:00,
2013-03-23 09:04:00,14.0,-99.9,-100.00,North,-999,-999.0,-999.0,-999,-99.99,,,0.07,,2013-03-23 15:04:00,
2013-03-23 09:13:00,14.0,-99.9,-100.00,North,-999,-999.0,-999.0,-999,-99.99,,,0.07,,2013-03-23 15:13:00,
2013-03-23 09:23:00,14.0,-99.9,-100.00,North,-999,-999.0,-999.0,-999,-99.99,,,0.07,,2013-03-23 15:23:00,
2013-03-23 09:30:00,19.0,-99.9,-100.00,North,-999,-999.0,-999.0,-999,0.01,,,0.07,,2013-03-23 15:30:00,
2013-03-23 09:53:00,19.0,-99.9,-100.00,North,-999,-999.0,-999.0,-999,0.01,,,0.07,,2013-03-23 15:53:00,
2013-03-23 10:04:00,19.0,-99.9,-100.00,North,-999,-999.0,-999.0,-999,0.01,,,0.07,,2013-03-23 16:04:00,
2013-03-23 10:13:00,19.0,-99.9,-100.00,North,-999,-999.0,-999.0,-999,0.01,,,0.07,,2013-03-23 16:13:00,
2013-03-23 10:23:00,19.0,-99.9,-100.00,North,-999,-999.0,-999.0,-999,0.01,,,0.07,,2013-03-23 16:23:00,
2013-03-23 10:30:00,23.0,-99.9,-100.00,North,-999,-999.0,-999.0,-999,0.00,,,0.06,,2013-03-23 16:30:00,
2013-03-23 10:54:00,23.0,-99.9,-100.00,North,-999,-999.0,-999.0,-999,0.00,,,0.06,,2013-03-23 16:54:00,
2013-03-23 11:03:00,23.0,-99.9,-100.00,North,-999,-999.0,-999.0,-999,0.00,,,0.06,,2013-03-23 17:03:00,
2013-03-23 11:12:00,23.0,-99.9,-100.00,North,-999,-999.0,-999.0,-999,0.00,,,0.06,,2013-03-23 17:12:00,
2013-03-23 11:23:00,23.0,-99.9,-100.00,North,-999,-999.0,-999.0,-999,0.00,,,0.06,,2013-03-23 17:23:00,
2013-03-23 11:30:00,26.0,-99.9,-100.00,North,-999,-999.0,-999.0,-999,0.00,,,0.00,,2013-03-23 17:30:00,
2013-03-23 11:53:00,26.0,-99.9,-100.00,North,-999,-999.0,-999.0,-999,0.00,,,0.00,,2013-03-23 17:53:00,
2013-03-23 12:04:00,26.0,-99.9,-100.00,North,-999,-999.0,-999.0,-999,0.00,,,0.00,,2013-03-23 18:04:00,
2013-03-23 12:12:00,26.0,-99.9,-100.00,North,-999,-999.0,-999.0,-999,0.00,,,0.00,,2013-03-23 18:12:00,
2013-03-23 12:23:00,26.0,-99.9,-100.00,North,-999,-999.0,-999.0,-999,0.00,,,0.00,,2013-03-23 18:23:00,
2013-03-23 12:30:00,28.0,-99.9,-100.00,North,-999,-999.0,-999.0,-999,0.00,,,-99.99,,2013-03-23 18:30:00,
2013-03-23 12:53:00,28.0,-99.9,-100.00,North,-999,-999.0,-999.0,-999,0.00,,,-99.99,,2013-03-23 18:53:00,
2013-03-23 13:03:00,28.0,-99.9,-100.00,North,-999,-999.0,-999.0,-999,0.00,,,-99.99,,2013-03-23 19:03:00,
2013-03-23 13:13:00,28.0,-99.9,-100.00,North,-999,-999.0,-999.0,-999,0.00,,,-99.99,,2013-03-23 19:13:00,
2013-03-23 13:23:00,28.0,-99.9,-100.00,North,-999,-999.0,-999.0,-999,0.00,,,-99.99,,2013-03-23 19:23:00,
2013-03-23 13:30:00,29.0,-99.9,-100.00,North,-999,-999.0,-999.0,-999,0.00,,,-99.99,,2013-03-23 19:30:00,
2013-03-23 14:03:00,29.0,-99.9,-100.00,North,-999,-999.0,-999.0,-999,0.00,,,-99.99,,2013-03-23 20:03:00,
2013-03-23 14:13:00,29.0,-99.9,-100.00,North,-999,-999.0,-999.0,-999,0.00,,,-99.99,,2013-03-23 20:13:00,
2013-03-23 14:23:00,29.0,-99.9,-100.00,North,-999,-999.0,-999.0,-999,0.00,,,-99.99,,2013-03-23 20:23:00,
2013-03-23 14:30:00,33.0,-99.9,-100.00,North,-999,-999.0,-999.0,-999,0.00,,,-99.99,,2013-03-23 20:30:00,
2013-03-23 14:54:00,33.0,-99.9,-100.00,North,-999,-999.0,-999.0,-999,0.00,,,-99.99,,2013-03-23 20:54:00,
2013-03-23 15:03:00,33.0,-99.9,-100.00,North,-999,-999.0,-999.0,-999,0.00,,,-99.99,,2013-03-23 21:03:00,
2013-03-23 15:12:00,33.0,-99.9,-100.00,North,-999,-999.0,-999.0,-999,0.00,,,-99.99,,2013-03-23 21:12:00,
2013-03-23 15:23:00,33.0,-99.9,-100.00,North,-999,-999.0,-999.0,-999,0.00,,,-99.99,,2013-03-23 21:23:00,
2013-03-23 15:30:00,31.0,-99.9,-100.00,North,-999,-999.0,-999.0,-999,0.01,,,0.00,,2013-03-23 21:30:00,
2013-03-23 16:03:00,31.0,-99.9,-100.00,North,-999,-999.0,-999.0,-999,0.01,,,0.00,,2013-03-23 22:03:00,
2013-03-23 16:13:00,31.0,-99.9,-100.00,North,-999,-999.0,-999.0,-999,0.01,,,0.00,,2013-03-23 22:13:00,
2013-03-23 16:24:00,31.0,-99.9,-100.00,North,-999,-999.0,-999.0,-999,0.01,,,0.00,,2013-03-23 22:24:00,
2013-03-23 16:30:00,31.0,-99.9,-100.00,North,-999,-999.0,-999.0,-999,0.00,,,-99.99,,2013-03-23 22:30:00,
2013-03-23 16:54:00,31.0,-99.9,-100.00,North,-999,-999.0,-999.0,-999,0.00,,,-99.99,,2013-03-23 22:54:00,
2013-03-23 17:03:00,31.0,-99.9,-100.00,North,-999,-999.0,-999.0,-999,0.00,,,-99.99,,2013-03-23 23:03:00,
2013-03-23 17:13:00,31.0,-99.9,-100.00,North,-999,-999.0,-999.0,-999,0.00,,,-99.99,,2013-03-23 23:13:00,
2013-03-23 17:23:00,31.0,-99.9,-100.00,North,-999,-999.0,-999.0,-999,0.00,,,-99.99,,2013-03-23 23:23:00,
2013-03-23 17:30:00,31.0,-99.9,-100.00,North,-999,-999.0,-999.0,-999,0.01,,,0.02,,2013-03-23 23:30:00,
2013-03-23 17:53:00,31.0,-99.9,-100.00,North,-999,-999.0,-999.0,-999,0.01,,,0.02,,2013-03-23 23:53:00,
2013-03-23 18:03:00,31.0,-99.9,-100.00,North,-999,-999.0,-999.0,-999,0.01,,,0.02,,2013-03-24 00:03:00,
2013-03-23 18:13:00,31.0,-99.9,-100.00,North,-999,-999.0,-999.0,-999,0.01,,,0.02,,2013-03-24 00:13:00,
2013-03-23 18:23:00,31.0,-99.9,-100.00,North,-999,-999.0,-999.0,-999,0.01,,,0.02,,2013-03-24 00:23:00,
2013-03-23 19:30:00,27.0,-99.9,-100.00,North,-999,-999.0,-999.0,-999,0.00,,,-99.99,,2013-03-24 01:30:00,
2013-03-23 19:53:00,27.0,-99.9,-100.00,North,-999,-999.0,-999.0,-999,0.00,,,-99.99,,2013-03-24 01:53:00,
2013-03-23 20:03:00,27.0,-99.9,-100.00,North,-999,-999.0,-999.0,-999,0.00,,,-99.99,,2013-03-24 02:03:00,
2013-03-23 20:12:00,27.0,-99.9,-100.00,North,-999,-999.0,-999.0,-999,0.00,,,-99.99,,2013-03-24 02:12:00,
2013-03-23 20:22:00,27.0,-99.9,-100.00,North,-999,-999.0,-999.0,-999,0.00,,,-99.99,,2013-03-24 02:22:00,
2013-03-23 20:30:00,24.0,-99.9,-100.00,North,-999,-999.0,-999.0,-999,0.00,,,-99.99,,2013-03-24 02:30:00,
2013-03-23 21:03:00,24.0,-99.9,-100.00,North,-999,-999.0,-999.0,-999,0.00,,,-99.99,,2013-03-24 03:03:00,
2013-03-23 21:13:00,24.0,-99.9,-100.00,North,-999,-999.0,-999.0,-999,0.00,,,-99.99,,2013-03-24 03:13:00,
2013-03-23 21:23:00,24.0,-99.9,-100.00,North,-999,-999.0,-999.0,-999,0.00,,,-99.99,,2013-03-24 03:23:00,
2013-03-23 21:30:00,23.0,-99.9,-100.00,North,-999,-999.0,-999.0,-999,0.01,,,0.00,,2013-03-24 03:30:00,
2013-03-23 21:53:00,23.0,-99.9,-100.00,North,-999,-999.0,-999.0,-999,0.01,,,0.00,,2013-03-24 03:53:00,
2013-03-23 22:03:00,23.0,-99.9,-100.00,North,-999,-999.0,-999.0,-999,0.01,,,0.00,,2013-03-24 04:03:00,
2013-03-23 22:13:00,23.0,-99.9,-100.00,North,-999,-999.0,-999.0,-999,0.01,,,0.00,,2013-03-24 04:13:00,
2013-03-23 22:23:00,23.0,-99.9,-100.00,North,-999,-999.0,-999.0,-999,0.01,,,0.00,,2013-03-24 04:23:00,
2013-03-23 22:30:00,22.0,-99.9,-100.00,North,-999,-999.0,-999.0,-999,0.00,,,0.02,,2013-03-24 04:30:00,
2013-03-23 22:53:00,22.0,-99.9,-100.00,North,-999,-999.0,-999.0,-999,0.00,,,0.02,,2013-03-24 04:53:00,
2013-03-23 23:03:00,22.0,-99.9,-100.00,North,-999,-999.0,-999.0,-999,0.00,,,0.02,,2013-03-24 05:03:00,
2013-03-23 23:13:00,22.0,-99.9,-100.00,North,-999,-999.0,-999.0,-999,0.00,,,0.02,,2013-03-24 05:13:00,
2013-03-23 23:23:00,22.0,-99.9,-100.00,North,-999,-999.0,-999.0,-999,0.00,,,0.02,,2013-03-24 05:23:00,
2013-03-23 23:30:00,21.0,-99.9,-100.00,North,-999,-999.0,-999.0,-999,-99.99,,,0.00,,2013-03-24 05:30:00,